Regional Weather Roundup
Issued by NWS

Home | Current Version | Previous Version | Graphics & Text | Print | Product List | Glossary On
Versions: 1 2 3 4 5 6 7 8 9 10 11 12 13 14 15 16 17 18 19 20 21 22 23 24 25 26 27 28 29 30 31 32 33 34 35 36 37 38 39 40 41 42 43 44 45 46 47 48 49 50
000
ASUS45 KTFX 221604
RWRMT
MONTANA HOURLY WEATHER ROUNDUP
NATIONAL WEATHER SERVICE GREAT FALLS MT
1004 AM MDT TUE APR 22 2014

NOTE: "FAIR" INDICATES FEW OR NO CLOUDS BELOW 12000 FEET WITH NO
SIGNIFICANT WEATHER AND/OR OBSTRUCTIONS TO VISIBILITY.

* THESE STATIONS ARE NOT UNDER NWS QUALITY CONTROL. THEY DO NOT
   REPORT WEATHER SUCH AS PRECIPITATION OR FOG.

MTZ001>007-043-221700-
WEST OF THE DIVIDE
CITY           SKY/WX    TMP DP  RH WIND       PRES   REMARKS
KALISPELL      PTSUNNY   52  34  50 VRB5      29.60F
MISSOULA       CLOUDY    48  34  59 N9        29.66R
BUTTE          PTCLDY    55  34  45 S13       29.69F
MULLAN PASS    LGT SNOW  34  32  92 VRB3      29.70S VSB 1
* ESSEX        N/A       43  28  56 S11G16     N/A
* LINCOLN      N/A       39  30  70 SW1        N/A
* LOOKOUT PASS N/A       39  36  89 E1         N/A
* POLSON       N/A       49  34  56 SE2        N/A
* RONAN APT    CLOUDY    48  34  59 N/A        N/A
* SEELEY LAKE  N/A       45  30  56 N1         N/A
* THOMP F APT  CLOUDY    45  40  83 E8G16      N/A
* YAAK HILL    N/A       41  36  82 S1         N/A
$$

MTZ008-052>055-221700-
SOUTHWEST MONTANA
CITY           SKY/WX    TMP DP  RH WIND       PRES   REMARKS
BOZEMAN        PTSUNNY   61  36  39 S15       29.70F
DILLON         PTCLDY    57  36  46 S16G26    29.67F
W YELLOWSTONE  N/A       41  39  93 N1         N/A
* THREE FORKS  PTCLDY    63  43  48 S28G35     N/A
* BOULDER HILL N/A       46  23  40 S12        N/A
* MONIDA PASS  N/A       43  41  93 SE9        N/A
* RAYNOLDS PAS N/A       43  25  49 SE22G28    N/A
* WHITEHALL    N/A       55  29  37 NW2        N/A
* WISE RIVER   N/A       45  31  58 NW3G8      N/A
$$

MTZ009>010-012-014-046-048-049-054-221700-
EAST SLOPES AND CENTRAL MONTANA
CITY           SKY/WX    TMP DP  RH WIND       PRES   REMARKS
CUT BANK       CLOUDY    52  30  43 N5        29.64F
GREAT FALLS    CLOUDY    57  30  36 SE10      29.64F
HELENA         PTSUNNY   50  28  43 CALM      29.66F
MALMSTROM AFB  CLOUDY    57  28  33 CALM      29.62F
* CONRAD       PTCLDY    48  34  59 N/A        N/A
* DEARBORN     N/A       47  30  52 W2         N/A
* EAST GLACIER N/A       50  24  36 E2         N/A
* MONARCH      N/A       56  23  28 S11        N/A
* PENDROY      N/A       58  27  31 S8         N/A
* ROGERS PASS  N/A       51  27  39 N/A        N/A
* SAINT MARY   N/A       40  30  68 NE3G8      N/A
* SWEET GRASS  N/A       50  26  39 S12        N/A
$$

MTZ011-013-016-021-035-040-045-047-050-051-221700-
NORTH CENTRAL MONTANA
CITY           SKY/WX    TMP DP  RH WIND       PRES   REMARKS
HAVRE          PTSUNNY   61  30  31 NE9       29.64F
LEWISTOWN      CLOUDY    61  32  34 CALM      29.69F
* CHESTER      N/A       54  25  33 S7G14      N/A
* DENTON       N/A       63  32  31 SE17G22    N/A
* GEYSER       N/A       59  32  36 N4         N/A
* JUDITH GAP   N/A       53  30  41 S9         N/A
* LOMA         N/A       59  27  29 E11        N/A
$$

MTZ017>020-022>027-061-062-221700-
NORTHEAST MONTANA
CITY           SKY/WX    TMP DP  RH WIND       PRES   REMARKS
GLASGOW        PTSUNNY   55  34  45 E21       29.76F
JORDAN         CLOUDY    57  30  36 SE12      29.73F
SIDNEY         PTSUNNY   63  30  29 SE18G25   29.85F
WOLF POINT     PTCLDY    61  30  31 E20       29.80F
* BEAVER HILL  N/A       53  30  41 E32G37     N/A
* CIRCLE       N/A       56  35  45 E9         N/A
* LINDSAY DVD  N/A       50  31  48 E17        N/A
* NAVAJO       N/A       55  31  40 SE14G20    N/A
* SACO         N/A       58  30  35 E19G24     N/A
$$

MTZ028>042-056>058-221700-
SOUTHCENTRAL AND SOUTHEAST MONTANA
CITY           SKY/WX    TMP DP  RH WIND       PRES   REMARKS
BAKER          PTSUNNY   55  32  42 SE20      29.83F
BILLINGS       CLOUDY    52  34  50 NW5       29.73F
LIVINGSTON     PTSUNNY   61  36  39 W12       29.73F
MILES CITY     PTSUNNY   61  34  36 SE10      29.75F
* LAUREL APT   CLOUDY    50  30  46 N/A        N/A
* ROUNDUP APT  CLOUDY    52  28  40 S6         N/A
* HYSHAM       N/A       60  35  39 NE3        N/A
* REED POINT   N/A       49  34  56 W6         N/A
* ROSCOE HILL  N/A       53  21  29 N3         N/A
$$

REGIONAL REPORTS...DAKOTAS
CITY           SKY/WX    TMP DP  RH WIND       PRES   REMARKS
WILLISTON      PTCLDY    61  27  27 SE21G28   29.89F
DICKINSON      PTSUNNY   61  28  29 SE25G33   29.88F
CROSBY         SUNNY     59  30  33 SE23G30   29.91F
TIOGA          SUNNY     57  27  32 SE20G26   29.96F
WATFORD CITY   SUNNY     59  27  29 SE21G39   29.87F
BISMARCK       PTSUNNY   55  34  45 SE14      29.99F
GRAND FORKS    PTCLDY    52  36  55 SE8       30.11F
FARGO          PTSUNNY   54  34  47 CALM      30.12F
RAPID CITY     PTCLDY    61  36  39 S14       29.82F
$$

REGIONAL REPORTS...WYOMING/IDAHO/WASHINGTON
CITY           SKY/WX    TMP DP  RH WIND       PRES   REMARKS
GILLETTE       CLOUDY    54  36  51 S12       29.82F
SHERIDAN       CLOUDY    54  37  53 CALM      29.77F
CODY           CLOUDY    57  37  47 SW13      29.79F
YELLOWSTONE LA CLOUDY    39  36  89 CALM      29.92F
SALMON         CLOUDY    45  30  56 NW3       29.65F
MULLAN PASS    LGT SNOW  34  32  92 VRB3      29.70S VSB 1
SPOKANE        LGT RAIN  43  41  93 SW17      29.68S

$$




USA.gov is the U.S. government's official web portal to all federal, state and local government web resources and services.